Regional Weather Roundup
Issued by NWS Upton, NY

Current Version | Previous Version | Graphics & Text | Print | Product List | Glossary Off
Versions: 1 2 3 4 5 6 7 8 9 10 11 12 13 14 15 16 17 18 19 20 21 22 23 24 25 26 27 28 29 30 31 32 33 34 35 36 37 38 39 40 41 42 43 44 45 46 47 48 49 50

210
ASUS41 KOKX 210005
RWROKX

Regional Weather Roundup
National Weather Service New York NY
800 PM EDT FRI APR 20 2018

Note: "FAIR" indicates few or no clouds below 12,000 feet with no
significant weather and/or obstructions to visibility.

NYZ071-072-176-178-NJZ106-104-210100-
New York City Metro Area

CITY           SKY/WX    TMP DP  RH WIND       PRES   REMARKS
Central Park   FAIR      44  22  41 NW8G18    30.33R
Bronx Bot Gard   N/A     43  23  45 NW3       30.31R
Bronx Lehman C   N/A     43  25  49 NW13        N/A
LaGuardia Arpt FAIR      45  25  45 NW20G29   30.30R
Queens College   N/A     43  25  49 NW15        N/A
Kennedy Intl   FAIR      44  23  43 NW21      30.30R
Breezy Point     N/A     43 N/A N/A NW15G22     N/A
Brooklyn Coll    N/A     45  23  42 NW20        N/A
Staten Island    N/A     45  25  45 N13         N/A
Newark/Liberty FAIR      45  22  40 NW16G28   30.31R
Teterboro      FAIR      44  24  45 NW17G26   30.30R
$$

NYZ177-179-078>081-210100-
Long Island New York

CITY           SKY/WX    TMP DP  RH WIND       PRES   REMARKS
Jones Beach      N/A     45 N/A N/A NW23G29     N/A
Wantagh          N/A     45  25  45 NW15G28     N/A
Hempstead        N/A     45  28  53 W7        30.32R
Matinecock Pt    N/A     45 N/A N/A NW28G33     N/A
Farmingdale    FAIR      44  24  45 NW9G18    30.28R
MacArthur/ISP  FAIR      45  26  47 NW14      30.26R
Stony Brook      N/A     45  32  61 N10         N/A
Shirley        FAIR      45  29  53 N9        30.26R
Mt Sinai Harb    N/A    N/A N/A N/A N14         N/A
Westhampton    FAIR      45  25  45 NW10      30.25R
East Hampton   FAIR      45  29  54 NW8       30.22R
Southold         N/A     45  32  61 NW14        N/A
Montauk          N/A     48  33  56 NW13      30.22R
$$

NYZ052-065-067-210100-
Hudson Valley

CITY           SKY/WX    TMP DP  RH WIND       PRES   REMARKS
White Plains   FAIR      41  23  48 NW17G25   30.27R
Larchmont Harb   N/A     43 N/A N/A NW16G24     N/A
Croton On Huds   N/A     43 N/A N/A W14         N/A
Somers           N/A     39  25  56 NW9         N/A  WCI  33
Brewster         N/A     39  25  56 N9          N/A  WCI  33
Newburgh       PTCLDY    41  25  52 NW14      30.31R
Montgomery     FAIR      41  23  48 NW13G20   30.31R
Otisville        N/A     39  25  56 NW12        N/A  WCI  32
Warwick          N/A     39  25  56 NW12        N/A  WCI  32
Suffern          N/A     39  23  52 NW10        N/A  WCI  32
Poughkeepsie   MOCLDY    41  22  46 NW12      30.31R
Albany         MOCLDY    40  24  53 W12       30.32R WCI  33
$$

NJZ001-105-106-008-010-013-015-019>022-104-210100-
New Jersey

CITY           SKY/WX    TMP DP  RH WIND       PRES   REMARKS
Newark/Liberty FAIR      45  22  40 NW16G28   30.31R
Teterboro      FAIR      44  24  45 NW17G26   30.30R
Caldwell       FAIR      42  22  44 NW7       30.32R
Somerville     FAIR      45  23  42 N12       30.30R
Linden         FAIR      44  21  40 N12G18    30.32R
Perth Amboy      N/A     45 N/A N/A NW16        N/A
Sussex         FAIR      41  23  48 N6G18     30.33R
Andover          N/A     41  22  46 N10G18    30.32R
Trenton        FAIR      45  23  42 N9G18     30.31R
Millville      FAIR      49  26  41 N7        30.29R
Atlantic City  FAIR      49  27  42 N9        30.28R
Wrightstown    FAIR      45  25  46 N10       30.28R
Toms River     FAIR      46  25  43 NW14G21   30.30R
Belmar         FAIR      45  23  42 NW16G23   30.31R
$$

PAZ047>061-062-071-210100-
Eastern Pennsylvania

CITY           SKY/WX    TMP DP  RH WIND       PRES   REMARKS
Philadelphia   FAIR      49  23  36 N13       30.31R
Allentown      FAIR      44  24  45 N8        30.33R
Scranton       FAIR      40  24  53 N13       30.33R WCI  32
$$

CTZ002-004>006-009-010-012-RIZ004-006-007-MAZ004-011-015-210100-
Southern New England

 In CT

CITY           SKY/WX    TMP DP  RH WIND       PRES   REMARKS
Bradley Intl   MOCLDY    43  25  49 NW20G28   30.26R
Hartford       FAIR      44  25  47 NW14G22   30.26R
Danbury        CLOUDY    42  23  46 N10G23    30.29R
Wtrbury/Oxford FAIR      39  24  55 N18G24    30.26R WCI  30
Norwalk Harbor   N/A     45 N/A N/A NW15G21     N/A
Bridgeport     FAIR      45  24  43 N15G24    30.27R
Meriden        FAIR      43  24  47 NW16      30.26R
New Haven      FAIR      45  24  43 N15G25    30.26R
Chester        FAIR      43  23  45 NW16G24   30.23R
Groton         FAIR      47  25  42 NW13G22   30.21R
Willimantic    FAIR      46  26  45 NW13G22   30.23R

 In RI

CITY           SKY/WX    TMP DP  RH WIND       PRES   REMARKS
Providence     MOCLDY    49  27  42 N20G25    30.20R
Block Island   FAIR      47  29  49 NW12G21   30.20R
Westerly       FAIR      49  27  42 W6        30.21R

In MA

CITY           SKY/WX    TMP DP  RH WIND       PRES   REMARKS
Boston         FAIR      47  27  45 NW15G23   30.19R
Worcester      CLOUDY    42  24  49 N16G23    30.20R
Westfield      CLOUDY    42  26  53 W14       30.26R
Provincetown   FAIR      44  35  70 NW12      30.17R
Nantucket      CLOUDY    46  35  65 W6        30.15R
$$

ANZ330-335-338-340-345-350-353-355-210100-
Coastal Marine Observations


STATION/POSITION TIME  SKY/WX   TEMP    WIND        PRES    VSBY  WAVE
                                AIR SEA DIR/SP/G                  HT/PER
                 (UTC)          (F)     (DEG/KT/KT) (MB)    (MI)  (FT/S)
NY Harb Entrance 2350            45 44  320/ 19/ 23 1025.7          3/ 4
20 S Fire Island 2350            45 42  310/ 16/ 19 1024.5          2/ 4
23 SSW Montauk P 2350            45 42  280/ 14/ 16 1023.2          3/10
15 E Barnegat Li 2330               45                N/A           2/10
Hudson Canyon    2350            44 44  280/ 10/ 14 1024.1          3/ 5
Kings Point      2330            44 45  360/ 17/ 21 1026.4
Execution Rocks  NOT AVBL
Western LI Sound NOT AVBL
Central LI Sound 2345            45     310/ 16/ 19   N/A           2
Robbins Reef     2330            45     330/ 15/ 20 1026.3
$$


>>>>>>>>>>>>>>>>>>>>>>>>>>>> KEY <<<<<<<<<<<<<<<<<<<<<<<<<<<
>                                                          <
>     SKY/WX - Sky Condition/Present Weather               <
>     TMP    - Temperature in Fahrenheit                   <
>     DP     - Dew Point in Fahrenheit                     <
>     RH     - Relative Humidity in Percent                <
>     WIND   - Direction (from) and Speed in MPH           <
>     PRES   - Mean Sea Level Pressure (inches of Hg)      <
>     WCI    - Wind Chill Index                            <
>     VSB    - Visibility in Miles                         <
>     HX     - Heat Index                                  <
>     TC     - Temperature in Celsius                      <
>     VRB    - Varibale Wind Direction                     <
>                                                          <
>>>>>>>>>>>>>>>>>>>>>>>>>>>> KEY <<<<<<<<<<<<<<<<<<<<<<<<<<<




USA.gov is the U.S. government's official web portal to all federal, state and local government web resources and services.